Other Surface Observations
Issued by NWS Upton, NY

Home | Current Version | Previous Version | Text Only | Print | Product List | Glossary On
Versions: 1 2 3 4 5 6 7 8 9 10 11 12 13 14 15 16 17 18 19 20 21 22 23 24 25 26 27 28 29 30 31 32 33 34 35 36 37 38 39 40 41 42 43 44 45 46 47 48 49 50
000
SXUS51 KOKX 220757
OSOOKX
New York City Metropolitan Area Weather Roundup
National Weather Service New York NY
400 AM EDT SUN APR 22 2018

CITY           SKY/WX    TMP DP  RH WIND       PRES   REMARKS
Central Park   FAIR      47  18  31 VRB5      30.40R
LaGuardia Arpt FAIR      49  22  34 NW8       30.38R
Kennedy Intl   FAIR      45  21  38 NW7       30.39R
Newark Liberty FAIR      48  20  32 N8        30.39R
Teterboro Arpt FAIR      45  18  34 CALM      30.38R
Bronx Bot Gard   N/A     45  19  36 NW3       30.40R
Bronx Lehman C   N/A     46  19  34 N5          N/A
Queens College   N/A     48  23  37 NW6         N/A
Breezy Point     N/A     46 N/A N/A NW6         N/A
Brooklyn Coll    N/A     50  19  29 NW6         N/A
Staten Island    N/A     46  19  34 N5          N/A

>>>>>>>>>>>>>>>>>>>>>>>>>>>>>>>>> KEY <<<<<<<<<<<<<<<<<<<<<<<<<<<<<<<
> SKY/WX - Sky Condition/Present    : R : WCI - Wind Chill Index    <
>          Weather                  : E : VSB - Visibility in Miles <
> TMP    - Temperature in Deg F     : M : HX  - Heat Index          <
> DP     - Dew Point Temperature    : A : TC  - Temperature in      <
> RH     - Relative Humidity        : R :       Celsius             <
> WIND   - Direction/Speed (mph)    : K : VRB - Variable Wind Dir   <
> PRES   - Pressure (in Hg)         : S :                           <
>>>>>>>>>>>>>>>>>>>>>>>>>>>>>>>>> KEY <<<<<<<<<<<<<<<<<<<<<<<<<<<<<<<




USA.gov is the U.S. government's official web portal to all federal, state and local government web resources and services.